1495706400.24,9059,15.13,73728.3,10.11,1.85,1.97,0,*7A
1495706401.45,9060,15.13,73724.3,10.13,2.27,2.51,0,*70
1495706402.71,9061,15.13,73724.8,10.11,2.13,2.43,0,*77
1495706403.94,9062,15.13,73726.0,10.13,1.55,1.33,0,*73
1495706405.2,9063,15.13,73724.8,10.11,1.37,1.63,0,*71
1495706406.43,9064,15.13,73726.8,10.11,2.09,2.31,0,*7C
1495706407.65,9065,15.13,73726.3,10.13,1.63,1.85,0,*7C
1495706408.86,9066,15.13,73726.8,10.13,1.79,2.01,0,*7B
1495706410.09,9067,15.13,73726.0,10.13,1.97,2.13,0,*79
1495706411.31,9068,15.13,73724.3,10.11,1.83,1.93,0,*7A
1495706412.54,9069,15.13,73726.8,10.13,2.25,2.59,0,*73
1495706413.74,9070,15.13,73728.3,10.13,2.27,2.59,0,*79
1495706414.98,9071,15.13,73730.5,10.11,0.67,0.75,0,*70
1495706416.24,9072,15.13,73728.5,10.11,0.79,0.91,0,*76
1495706417.44,9073,15.13,73726.8,10.11,0.97,1.01,0,*4F
1495706418.64,9074,15.13,73726.3,10.09,0.91,1.01,0,*47
1495706419.87,9075,15.13,73726.0,10.09,1.63,1.85,0,*76
1495706421.1,9076,15.13,73726.5,10.07,1.67,1.83,0,*79
1495706422.35,9077,15.13,73728.5,10.07,1.89,2.05,0,*75
1495706423.56,9078,15.13,73726.5,10.09,1.71,1.83,0,*7E
1495706424.79,9079,15.13,73730.0,10.09,1.29,1.47,0,*7A
1495706426.01,9080,15.13,73728.8,10.09,1.85,1.97,0,*77
1495706427.21,9081,15.13,73730.0,10.09,0.97,1.13,0,*48
1495706428.41,9082,15.13,73728.8,10.07,0.97,0.97,0,*78
1495706429.65,9083,15.19,73728.8,10.07,0.75,0.87,0,*74
1495706430.9,9084,15.13,73726.3,10.07,0.59,0.75,0,*70
1495706432.13,9085,15.13,73730.3,10.03,1.29,1.51,0,*74
1495706433.33,9086,15.13,73726.8,10.05,1.41,1.67,0,*7A
1495706434.56,9087,15.13,73720.3,10.05,2.01,2.25,0,*79
1495706435.8,9088,15.13,73726.8,10.05,2.47,2.59,0,*7F
1495706437.06,9089,15.13,73726.5,10.07,1.71,2.01,0,*77
1495706438.32,9090,15.19,73730.0,10.07,1.25,1.37,0,*78
1495706439.56,9091,15.19,73728.8,10.07,0.13,0.37,0,*7C
1495706440.75,9092,15.13,73726.8,10.09,1.41,1.71,0,*74
1495706441.95,9093,15.19,73726.8,10.09,1.75,1.97,0,*7A
1495706443.2,9094,15.13,73724.5,10.07,2.21,2.55,0,*7C
1495706444.43,9095,15.19,73728.0,10.07,2.09,2.31,0,*75
1495706445.68,9096,15.13,73724.3,10.07,1.47,1.85,0,*73
1495706446.92,9097,15.13,73728.3,10.07,2.39,2.61,0,*71
1495706448.15,9098,15.13,73728.8,10.11,2.69,2.91,0,*73
1495706449.41,9099,15.13,73728.8,10.11,1.09,1.21,0,*7F
1495706450.67,9100,15.13,73724.8,10.11,1.85,2.05,0,*7F
1495706451.91,9101,15.13,73728.3,10.13,1.97,2.13,0,*78
1495706453.17,9102,15.13,73728.8,10.11,1.09,1.09,0,*76
1495706454.43,9103,15.13,73728.0,10.11,1.29,1.21,0,*7F
1495706455.69,9104,15.19,73728.0,10.11,1.71,2.05,0,*70
1495706456.92,9105,15.13,73728.5,10.11,2.69,2.95,0,*72
1495706458.14,9106,15.19,73730.0,10.11,2.69,2.91,0,*75
1495706459.36,9107,15.13,73728.0,10.13,2.89,3.23,0,*70
1495706460.59,9108,15.19,73728.8,10.17,2.51,2.73,0,*7A
1495706461.84,9109,15.13,73724.5,10.15,1.51,1.67,0,*7C
1495706463.07,9110,15.19,73728.3,10.17,1.89,2.13,0,*73
1495706464.3,9111,15.19,73728.5,10.17,2.01,2.17,0,*75
1495706465.53,9112,15.13,73724.0,10.17,2.13,2.43,0,*74
1495706466.72,9113,15.19,73730.0,10.17,2.99,3.23,0,*70
1495706467.95,9114,15.13,73724.8,10.17,2.89,3.15,0,*73
1495706469.21,9115,15.13,73726.8,10.23,3.03,3.41,0,*77
1495706470.46,9116,15.13,73724.8,10.23,2.09,2.43,0,*7C
1495706471.72,9117,15.19,73726.0,10.23,2.17,2.43,0,*72
1495706472.91,9118,15.19,73724.5,10.25,2.13,2.27,0,*7D
1495706474.11,9119,15.19,73728.5,10.25,2.73,2.95,0,*73
1495706475.33,9120,15.19,73726.5,10.27,2.69,2.91,0,*74
1495706476.53,9121,15.19,73724.3,10.29,2.01,2.27,0,*78
1495706477.76,9122,15.19,73726.8,10.29,1.21,1.33,0,*7C
1495706478.99,9123,15.13,73724.8,10.29,2.25,2.39,0,*73
1495706480.19,9124,15.19,73728.0,10.29,2.31,2.43,0,*7C
1495706481.44,9125,15.19,73732.5,10.31,1.43,1.51,0,*72
1495706482.66,9126,15.19,73728.0,10.29,1.59,1.89,0,*76
1495706483.88,9127,15.19,73732.5,10.29,2.13,2.39,0,*72
1495706485.12,9128,15.19,73734.5,10.29,1.21,1.55,0,*76
1495706486.34,9129,15.19,73732.3,10.29,1.71,2.05,0,*74
1495706487.56,9130,15.19,73728.8,10.29,1.59,1.89,0,*71
1495706488.74,9131,15.13,73724.5,10.29,0.01,0.25,0,*4B
1495706489.93,9132,15.13,73730.3,10.27,-0.07,-0.03,0,*74
1495706491.13,9133,15.19,73730.5,10.25,0.17,0.41,0,*70
1495706492.34,9134,15.19,73732.8,10.25,0.67,0.83,0,*7E
1495706493.56,9135,15.19,73734.5,10.21,0.47,0.75,0,*70
1495706494.8,9136,15.19,73736.0,10.23,0.75,1.09,0,*4A
1495706496.03,9137,15.19,73738.3,10.21,1.09,1.21,0,*79
1495706497.24,9138,15.19,73734.8,10.21,0.17,0.41,0,*7F
1495706498.42,9139,15.19,73734.0,10.17,0.01,0.21,0,*4A
1495706499.66,9140,15.13,73734.5,10.15,0.33,0.79,0,*7A
1495706500.88,9141,15.19,73732.5,10.15,1.05,1.43,0,*77
1495706502.13,9142,15.13,73734.0,10.15,1.43,1.85,0,*7C
1495706503.39,9143,15.19,73736.0,10.15,1.17,1.51,0,*75
1495706504.6,9144,15.19,73732.0,10.17,1.79,2.13,0,*7D
1495706505.82,9145,15.19,73736.5,10.17,2.21,2.55,0,*70
1495706507.0,9146,15.19,73732.5,10.17,2.27,2.65,0,*76
1495706508.25,9147,15.19,73732.8,10.23,2.47,2.69,0,*7A
1495706509.45,9148,15.19,73734.5,10.23,2.91,3.29,0,*7B
1495706510.65,9149,15.19,73732.3,10.27,3.63,3.93,0,*73
1495706511.86,9150,15.19,73734.0,10.29,3.71,4.07,0,*7C
1495706513.06,9151,15.19,73734.5,10.31,3.85,4.23,0,*79
1495706514.29,9152,15.13,73724.8,10.35,3.67,3.89,0,*75
1495706515.56,9153,15.19,73730.3,10.37,3.15,3.45,0,*73
1495706516.76,9154,15.19,73734.8,10.39,3.45,3.81,0,*77
1495706517.99,9155,15.19,73732.8,10.45,3.67,4.11,0,*73
1495706519.24,9156,15.19,73730.5,10.45,3.45,3.75,0,*75
1495706520.5,9157,15.19,73728.5,10.49,3.07,3.37,0,*78
1495706521.75,9158,15.19,73728.5,10.49,3.23,3.53,0,*73
1495706522.97,9159,15.19,73730.3,10.51,2.77,3.11,0,*7D
1495706524.2,9160,15.19,73730.5,10.53,2.89,3.25,0,*73
1495706525.44,9161,15.19,73730.3,10.53,1.47,1.59,0,*7A
1495706526.68,9162,15.19,73726.3,10.53,2.21,2.59,0,*79
1495706527.93,9163,15.19,73726.3,10.53,2.43,2.55,0,*70
1495706529.15,9164,15.19,73724.0,10.55,1.89,2.21,0,*77
1495706530.35,9165,15.19,73724.3,10.55,1.41,1.63,0,*77
1495706531.6,9166,15.19,73730.0,10.57,2.59,2.85,0,*77
1495706532.82,9167,15.19,73728.8,10.55,2.73,3.07,0,*77
1495706534.07,9168,15.19,73728.5,10.57,2.47,2.69,0,*74
1495706535.31,9169,15.19,73724.3,10.57,2.25,2.59,0,*72
1495706536.52,9170,15.19,73728.3,10.57,2.35,2.61,0,*70
1495706537.77,9171,15.19,73730.0,10.57,2.13,2.47,0,*71
1495706538.97,9172,15.19,73728.5,10.59,2.99,3.33,0,*7C
1495706540.22,9173,15.19,73732.0,10.61,2.43,2.69,0,*7F
1495706541.46,9174,15.19,73726.3,10.61,1.93,2.21,0,*7A
1495706542.68,9175,15.19,73732.3,10.61,2.61,2.89,0,*77
1495706543.91,9176,15.19,73730.3,10.67,3.07,3.45,0,*72
1495706545.1,9177,15.19,73724.5,10.69,3.55,4.01,0,*7D
1495706546.33,9178,15.19,73722.5,10.69,3.41,3.67,0,*70
1495706547.55,9179,15.19,73728.0,10.71,2.85,3.29,0,*7B
1495706548.75,9180,15.19,73730.0,10.73,2.81,3.25,0,*77
1495706549.97,9181,15.19,73722.8,10.73,2.81,3.23,0,*70
1495706551.22,9182,15.19,73730.3,10.75,2.51,2.73,0,*7C
1495706552.45,9183,15.19,73728.0,10.75,2.65,3.11,0,*7F
1495706553.64,9184,15.19,73730.0,10.75,3.81,4.15,0,*70
1495706554.83,9185,15.19,73732.8,10.77,3.53,3.89,0,*7E
1495706556.07,9186,15.19,73728.5,10.79,2.85,3.19,0,*70
1495706557.29,9187,15.19,73728.8,10.83,2.01,2.31,0,*73
1495706558.5,9188,15.19,73734.8,10.83,2.05,2.31,0,*78
1495706559.7,9189,15.19,73732.3,10.81,3.23,3.59,0,*71
1495706560.92,9190,15.19,73732.3,10.85,3.45,3.71,0,*77
1495706562.11,9191,15.19,73730.3,10.85,2.77,2.99,0,*71
1495706563.33,9192,15.19,73732.3,10.89,2.25,2.47,0,*7A
1495706564.55,9193,15.19,73730.5,10.91,2.69,2.91,0,*71
1495706565.76,9194,15.19,73730.8,10.89,1.47,1.71,0,*7D
1495706566.98,9195,15.19,73728.5,10.89,3.03,3.37,0,*7E
1495706568.2,9196,15.19,73730.5,10.89,3.49,3.67,0,*76
1495706569.42,9197,15.19,73730.5,10.93,2.47,2.59,0,*7F
1495706570.64,9198,15.19,73724.0,10.91,1.75,1.89,0,*7E
1495706571.87,9199,15.19,73722.3,10.91,0.67,1.13,0,*4E
1495706573.1,9200,15.19,73726.3,10.91,2.25,2.61,0,*7F
1495706574.3,9201,15.19,73724.5,10.93,2.27,2.73,0,*7D
1495706575.49,9202,15.19,73724.0,10.93,2.09,2.27,0,*73
1495706576.73,9203,15.19,73730.5,10.91,1.43,1.67,0,*7A
1495706577.96,9204,15.19,73726.3,10.91,2.17,2.61,0,*7A
1495706579.19,9205,15.19,73728.3,10.93,1.97,2.17,0,*73
1495706580.38,9206,15.19,73724.5,10.91,-0.15,0.09,0,*69
1495706581.59,9207,15.19,73730.0,10.89,0.47,0.55,0,*72
1495706582.82,9208,15.19,73724.5,10.85,-0.27,-0.23,0,*76
1495706584.01,9209,15.19,73726.0,10.83,-0.65,-0.61,0,*71
1495706585.21,9210,15.19,73728.3,10.79,-0.81,-0.69,0,*7E
1495706586.38,9211,15.19,73726.3,10.77,-0.81,-0.61,0,*79
1495706587.58,9212,15.19,73728.8,10.75,-0.77,-0.77,0,*76
1495706588.78,9213,15.19,73726.3,10.71,-0.07,-0.07,0,*73
1495706589.98,9214,15.19,73726.5,10.71,-0.37,-0.37,0,*74
1495706591.2,9215,15.19,73726.0,10.69,0.37,0.21,0,*7B
1495706592.37,9216,15.19,73724.3,10.67,-0.19,-0.07,0,*4E
1495706593.58,9217,15.19,73726.3,10.63,0.83,0.95,0,*73
1495706594.81,9218,15.19,73728.5,10.61,0.63,0.83,0,*77
1495706596.07,9219,15.19,73728.0,10.61,1.13,1.33,0,*7A
1495706597.3,9220,15.19,73730.8,10.61,0.75,0.87,0,*7F
1495706598.5,9221,15.19,73732.5,10.59,1.41,1.51,0,*79
1495706599.75,9222,15.19,73734.5,10.61,1.13,1.09,0,*7B
1495706600.98,9223,15.19,73732.5,10.57,-0.23,-0.33,0,*75
1495706602.22,9224,15.19,73732.5,10.57,0.41,0.51,0,*72
1495706603.38,9225,15.19,73734.8,10.55,-0.07,0.05,0,*5F
1495706604.62,9226,15.19,73730.8,10.53,0.75,0.83,0,*7C
1495706605.8,9227,15.19,73734.8,10.51,-0.37,-0.41,0,*77
1495706607.02,9228,15.19,73734.5,10.47,0.33,0.51,0,*7A
1495706608.18,9229,15.19,73732.0,10.47,0.09,0.09,0,*7F
1495706609.4,9230,15.19,73728.0,10.47,0.29,0.33,0,*7C
1495706610.61,9231,15.19,73734.0,10.47,0.51,0.63,0,*77
1495706611.81,9232,15.19,73732.0,10.45,1.01,1.05,0,*73
1495706613.06,9233,15.19,73732.3,10.41,0.91,0.91,0,*72
1495706614.3,9234,15.19,73732.5,10.41,0.37,0.51,0,*75
1495706615.56,9235,15.19,73732.8,10.41,1.21,1.33,0,*77
1495706616.8,9236,15.19,73726.8,10.41,0.51,0.47,0,*70
1495706618.01,9237,15.19,73734.0,10.37,0.25,0.43,0,*77
1495706619.25,9238,15.19,73732.0,10.37,0.67,0.71,0,*7F
1495706620.46,9239,15.19,73730.5,10.37,-0.19,-0.15,0,*75
1495706621.67,9240,15.19,73730.3,10.35,0.29,0.43,0,*79
1495706622.93,9241,15.19,73734.5,10.35,1.17,1.29,0,*79
1495706624.13,9242,15.19,73738.3,10.33,0.63,0.79,0,*7A
1495706625.31,9243,15.19,73732.0,10.33,-0.19,-0.11,0,*78
1495706626.55,9244,15.19,73732.0,10.31,0.25,0.37,0,*76
1495706627.79,9245,15.19,73732.8,10.31,0.51,0.63,0,*75
1495706629.01,9246,15.19,73734.5,10.29,0.51,0.59,0,*76
1495706630.2,9247,15.19,73734.5,10.29,1.41,1.59,0,*76
1495706631.4,9248,15.19,73734.0,10.29,1.33,1.41,0,*75
1495706632.6,9249,15.19,73734.8,10.29,0.95,1.05,0,*49
1495706633.83,9250,15.19,73734.0,10.29,1.37,1.47,0,*7E
1495706635.01,9251,15.19,73736.5,10.29,0.83,0.97,0,*7D
1495706636.27,9252,15.19,73738.8,10.27,1.13,1.37,0,*73
1495706637.51,9253,15.19,73732.8,10.27,0.71,0.79,0,*7C
1495706638.77,9254,15.19,73738.8,10.27,1.25,1.29,0,*7F
1495706639.98,9255,15.19,73736.3,10.25,0.51,0.55,0,*74
1495706641.15,9256,15.19,73742.8,10.25,-0.45,-0.29,0,*79
1495706642.33,9257,15.19,73736.3,10.25,0.43,0.63,0,*70
1495706643.53,9258,15.19,73736.0,10.25,1.41,1.51,0,*7C
1495706644.75,9259,15.19,73742.5,10.23,0.97,1.13,0,*47
1495706645.97,9260,15.19,73736.3,10.23,1.01,1.13,0,*73
1495706647.23,9261,15.19,73736.3,10.23,1.33,1.51,0,*75
1495706648.47,9262,15.19,73736.3,10.23,0.79,0.79,0,*72
1495706649.72,9263,15.19,73740.8,10.23,1.21,1.47,0,*73
1495706650.95,9264,15.19,73740.5,10.23,0.97,1.13,0,*49
1495706652.16,9265,15.19,73738.8,10.21,0.75,0.87,0,*7A
1495706653.39,9266,15.19,73740.3,10.23,0.75,0.79,0,*7A
1495706654.64,9267,15.19,73740.3,10.23,0.87,0.91,0,*70
1495706655.85,9268,15.19,73744.3,10.21,0.25,0.41,0,*78
1495706657.06,9269,15.19,73740.3,10.21,0.13,0.29,0,*72
1495706658.27,9270,15.19,73740.8,10.21,0.59,0.63,0,*7A
1495706659.45,9271,15.19,73736.3,10.21,0.01,0.17,0,*45
1495706660.69,9272,15.19,73736.3,10.15,0.51,0.71,0,*74
1495706661.94,9273,15.19,73736.3,10.15,0.55,0.59,0,*7B
1495706663.18,9274,15.19,73742.8,10.15,0.95,1.17,0,*4B
1495706664.41,9275,15.19,73738.0,10.15,1.63,1.79,0,*7A
1495706665.67,9276,15.19,73736.3,10.15,1.55,1.85,0,*7F
1495706666.88,9277,15.19,73736.5,10.17,2.31,2.51,0,*77
1495706668.1,9278,15.19,73736.8,10.23,2.17,2.31,0,*7D
1495706669.33,9279,15.19,73736.5,10.23,1.21,1.41,0,*7E
1495706670.58,9280,15.19,73738.3,10.23,1.37,1.59,0,*76
1495706671.83,9281,15.19,73734.8,10.23,2.05,2.25,0,*7D
1495706673.04,9282,15.19,73734.0,10.25,2.27,2.51,0,*7B
1495706674.3,9283,15.19,73734.5,10.27,2.59,2.81,0,*7C
1495706675.52,9284,15.19,73732.3,10.27,2.35,2.59,0,*74
1495706676.73,9285,15.19,73732.5,10.29,1.85,1.79,0,*72
1495706677.95,9286,15.19,73736.0,10.31,2.09,2.27,0,*77
1495706679.2,9287,15.19,73736.0,10.31,2.09,2.21,0,*70
1495706680.38,9288,15.19,73734.8,10.33,2.35,2.61,0,*76
1495706681.6,9289,15.19,73736.3,10.35,1.79,2.01,0,*7C
1495706682.86,9290,15.19,73736.5,10.35,1.63,1.85,0,*70
1495706684.05,9291,15.19,73738.3,10.33,1.75,1.97,0,*73
1495706685.27,9292,15.19,73736.8,10.33,1.89,2.01,0,*7F
1495706686.48,9293,15.19,73736.0,10.35,-0.19,-0.11,0,*73
1495706687.66,9294,15.19,73738.5,10.33,0.43,0.55,0,*7D
1495706688.87,9295,15.19,73742.3,10.31,-0.15,-0.15,0,*79
1495706690.08,9296,15.19,73738.8,10.29,0.21,0.21,0,*73
1495706691.26,9297,15.19,73738.3,10.29,-0.03,-0.03,0,*72
1495706692.44,9298,15.19,73742.5,10.27,0.43,0.43,0,*73
1495706693.63,9299,15.19,73738.5,10.27,0.05,0.05,0,*72
1495706694.81,9300,15.19,73736.8,10.25,-0.57,-0.45,0,*72
1495706696.04,9301,15.25,73742.5,10.23,0.17,0.37,0,*74
1495706697.27,9302,15.19,73738.8,10.23,0.17,0.13,0,*71
1495706698.49,9303,15.19,73742.0,10.21,0.87,0.91,0,*71
1495706699.65,9304,15.19,73742.8,10.17,0.01,-0.03,0,*5B
1495706700.87,9305,15.19,73738.0,10.17,0.71,0.75,0,*71
1495706702.07,9306,15.25,73740.5,10.17,1.05,1.17,0,*75
1495706703.28,9307,15.19,73736.8,10.15,0.05,0.17,0,*46
1495706704.49,9308,15.19,73742.3,10.17,0.21,0.25,0,*7C
1495706705.7,9309,15.19,73738.0,10.15,-0.77,-0.81,0,*72
1495706706.94,9310,15.19,73742.3,10.15,0.17,0.21,0,*76
1495706708.18,9311,15.19,73742.5,10.11,0.37,0.29,0,*79
1495706709.37,9312,15.19,73736.8,10.11,0.01,0.05,0,*71
1495706710.58,9313,15.19,73742.8,10.11,0.05,0.13,0,*43
1495706711.82,9314,15.19,73740.0,10.11,0.47,0.67,0,*71
1495706713.09,9315,15.19,73738.3,10.11,1.21,1.37,0,*75
1495706714.31,9316,15.19,73742.3,10.11,1.25,1.41,0,*73
1495706715.57,9317,15.19,73740.3,10.11,1.25,1.37,0,*73
1495706716.8,9318,15.19,73738.8,10.11,1.29,1.41,0,*71
1495706718.05,9319,15.25,73740.8,10.11,0.87,0.79,0,*7F
1495706719.3,9320,15.19,73740.0,10.11,0.75,0.75,0,*74
1495706720.52,9321,15.19,73738.0,10.09,-0.93,-0.97,0,*78
1495706721.73,9322,15.19,73736.3,10.07,0.09,0.13,0,*4A
1495706722.97,9323,15.19,73738.8,10.07,-0.37,-0.27,0,*71
1495706724.15,9324,15.19,73732.8,10.05,0.43,0.41,0,*77
1495706725.36,9325,15.19,73732.8,10.05,1.05,1.21,0,*72
1495706726.55,9326,15.19,73736.8,10.05,-0.41,-0.45,0,*73
1495706727.79,9327,15.19,73736.0,10.03,-1.05,-1.05,0,*70
1495706729.0,9328,15.19,73738.8,10.01,-0.41,-0.33,0,*78
1495706730.18,9329,15.19,73738.8,9.99,-0.45,-0.37,0,*40
1495706731.36,9330,15.19,73736.0,9.99,-0.45,-0.37,0,*48
1495706732.6,9331,15.19,73736.3,9.93,0.55,0.83,0,*4D
1495706733.81,9332,15.19,73734.0,9.99,0.47,0.47,0,*4F
1495706735.03,9333,15.19,73734.8,9.93,1.01,1.21,0,*46
1495706736.23,9334,15.25,73738.3,9.95,1.25,0.97,0,*7D
1495706737.44,9335,15.19,73736.8,9.95,0.13,0.37,0,*42
1495706738.67,9336,15.19,73736.3,9.93,0.59,0.79,0,*43
1495706739.82,9337,15.19,73738.3,9.95,0.01,0.01,0,*46
1495706741.05,9338,15.19,73740.3,9.93,0.37,0.59,0,*47
1495706742.25,9339,15.19,73740.0,9.93,-0.57,-0.69,0,*43
1495706743.46,9340,15.25,73742.0,9.91,0.25,0.41,0,*40
1495706744.7,9341,15.19,73738.5,9.89,0.79,0.51,0,*40
1495706745.85,9342,15.25,73742.0,9.91,0.01,0.05,0,*44
1495706747.09,9343,15.19,73736.8,9.89,0.51,0.75,0,*4E
1495706748.31,9344,15.19,73738.0,9.89,0.97,1.17,0,*76
1495706749.53,9345,15.25,73742.5,9.89,0.97,1.25,0,*76
1495706750.72,9346,15.25,73738.8,9.91,0.79,0.97,0,*44
1495706751.96,9347,15.25,73736.8,9.89,0.51,0.75,0,*4A
1495706753.19,9348,15.19,73738.5,9.89,0.17,0.41,0,*40
1495706754.42,9349,15.19,73736.3,9.89,0.63,0.79,0,*49
1495706755.66,9350,15.25,73740.8,9.89,0.41,0.51,0,*4B
1495706756.89,9351,15.25,73742.3,9.87,-1.47,-1.47,0,*45
1495706758.1,9352,15.19,73738.5,9.83,-1.35,-1.29,0,*4F
1495706759.29,9353,15.19,73736.8,9.83,-0.41,-0.15,0,*42
1495706760.49,9354,15.19,73738.3,9.81,-0.33,-0.11,0,*46
1495706761.72,9355,15.25,73740.3,9.81,0.29,0.41,0,*49
1495706762.92,9356,15.19,73738.5,9.81,0.33,0.43,0,*43
1495706764.16,9357,15.19,73738.0,9.81,0.21,0.21,0,*45
1495706765.35,9358,15.19,73734.8,9.79,-1.29,-1.21,0,*45
1495706766.52,9359,15.19,73734.3,9.79,-0.33,-0.19,0,*44
1495706767.73,9360,15.19,73732.0,9.77,-0.03,0.17,0,*50
1495706768.95,9361,15.19,73734.8,9.73,-0.27,-0.03,0,*7B
1495706770.15,9362,15.19,73738.5,9.73,-0.37,-0.07,0,*7D
1495706771.33,9363,15.25,73740.8,9.71,0.09,0.13,0,*76
1495706772.51,9364,15.19,73736.3,9.71,-0.73,-0.73,0,*4A
1495706773.73,9365,15.19,73736.8,9.69,-0.81,-0.85,0,*46
1495706774.96,9366,15.19,73738.5,9.67,-1.05,-0.93,0,*71
1495706776.16,9367,15.25,73740.0,9.65,-0.45,-0.45,0,*4C
1495706777.36,9368,15.19,73736.5,9.63,-1.59,-1.47,0,*4A
1495706778.58,9369,15.25,73736.3,9.63,-0.89,-0.85,0,*48
1495706779.75,9370,15.25,73736.8,9.59,-0.65,-0.57,0,*44
1495706780.92,9371,15.19,73738.8,9.59,-0.07,-0.11,0,*73
1495706782.11,9372,15.19,73734.8,9.57,0.01,-0.15,0,*51
1495706783.31,9373,15.25,73736.5,9.57,-0.57,-0.73,0,*4E
1495706784.54,9374,15.19,73736.0,9.57,-0.81,-1.01,0,*76
1495706785.74,9375,15.25,73738.5,9.49,-0.53,-0.69,0,*48
1495706786.94,9376,15.25,73736.5,9.53,-0.53,-0.73,0,*4B
1495706788.13,9377,15.25,73738.8,9.49,0.09,-0.03,0,*64
1495706789.31,9378,15.25,73738.0,9.49,0.09,-0.07,0,*6F
1495706790.52,9379,15.19,73740.8,9.49,0.17,0.09,0,*72
1495706791.69,9380,15.25,73740.8,9.47,-0.41,-0.65,0,*43
1495706792.92,9381,15.25,73744.0,9.45,-1.55,-1.83,0,*4D
1495706794.14,9382,15.25,73740.0,9.43,-1.83,-1.79,0,*46
1495706795.35,9383,15.25,73736.5,9.41,-1.63,-1.51,0,*41
1495706796.53,9384,15.19,73734.3,9.39,-0.15,0.05,0,*54
1495706797.76,9385,15.25,73740.0,9.39,0.29,0.29,0,*49
1495706798.96,9386,15.25,73742.3,9.37,0.21,0.33,0,*47
1495706800.13,9387,15.19,73744.0,9.37,-0.15,-0.03,0,*72
1495706801.3,9388,15.25,73744.8,9.37,-0.19,-0.03,0,*71
1495706802.46,9389,15.19,73738.3,9.37,-0.33,-0.45,0,*4A
1495706803.67,9390,15.25,73736.5,9.35,-2.31,-2.23,0,*42
1495706804.93,9391,15.25,73736.3,9.31,-1.13,-1.01,0,*47
1495706806.15,9392,15.25,73738.5,9.27,-0.27,-0.29,0,*4E
1495706807.34,9393,15.25,73736.8,9.31,-1.59,-1.59,0,*46
1495706808.53,9394,15.25,73740.0,9.25,-1.17,-1.25,0,*45
1495706809.76,9395,15.25,73738.3,9.23,-1.91,-1.59,0,*47
1495706811.02,9396,15.25,73734.8,9.23,-1.95,-2.03,0,*4C
1495706812.25,9397,15.25,73736.0,9.19,-2.51,-2.35,0,*4A
1495706813.48,9398,15.25,73734.5,9.15,-0.89,-0.77,0,*4A
1495706814.67,9399,15.19,73734.5,9.15,-0.69,-0.57,0,*47
1495706815.87,9400,15.25,73736.3,9.15,-0.65,-0.57,0,*4C
1495706817.05,9401,15.19,73736.3,9.13,-0.53,-0.45,0,*4D
1495706818.27,9402,15.19,73738.5,9.11,-0.23,-0.03,0,*79
1495706819.45,9403,15.19,73742.5,9.13,-0.41,-0.33,0,*4D
1495706820.63,9404,15.25,73740.0,9.13,-0.81,-0.69,0,*49
1495706821.84,9405,15.25,73742.3,9.11,-0.45,-0.37,0,*49
1495706823.05,9406,15.25,73738.5,9.11,-0.45,-0.37,0,*4A
1495706824.27,9407,15.19,73736.8,9.11,-0.15,-0.23,0,*4B
1495706825.49,9408,15.25,73736.8,9.11,-0.03,0.17,0,*59
1495706826.64,9409,15.25,73740.0,9.09,0.01,0.01,0,*49
1495706827.82,9410,15.25,73736.8,9.09,0.09,0.25,0,*7F
1495706829.03,9411,15.25,73736.3,9.09,-0.27,-0.33,0,*45
1495706830.23,9412,15.19,73734.3,9.09,-1.09,-1.33,0,*4A
1495706831.42,9413,15.25,73734.0,9.05,-0.61,-0.77,0,*49
1495706832.62,9414,15.25,73734.0,9.05,-0.19,-0.37,0,*45
1495706833.83,9415,15.19,73736.8,9.03,0.55,0.33,0,*4E
1495706835.03,9416,15.25,73738.0,9.01,-0.57,-0.73,0,*49
1495706836.27,9417,15.19,73736.5,9.01,-1.29,-1.39,0,*4F
1495706837.47,9418,15.25,73736.5,8.99,-0.23,-0.33,0,*40
1495706838.63,9419,15.25,73734.0,8.99,0.01,-0.11,0,*5C
1495706839.82,9420,15.25,73738.8,8.99,0.17,0.13,0,*4E
1495706841.05,9421,15.25,73738.5,8.97,0.37,0.37,0,*45
1495706842.26,9422,15.19,73734.3,8.99,0.59,0.63,0,*41
1495706843.45,9423,15.25,73736.3,8.99,0.17,0.13,0,*4D
1495706844.68,9424,15.25,73738.3,8.97,0.63,0.63,0,*40
1495706845.91,9425,15.25,73734.3,8.99,1.21,0.91,0,*75
1495706847.12,9426,15.25,73732.3,8.99,0.47,0.37,0,*4B
1495706848.28,9427,15.25,73732.0,8.99,0.05,-0.11,0,*55
1495706849.48,9428,15.25,73732.5,8.97,-0.37,-0.57,0,*4A
1495706850.71,9429,15.19,73736.0,8.97,0.71,0.41,0,*4E
1495706851.94,9430,15.25,73738.8,8.97,0.75,0.59,0,*4B
1495706853.18,9431,15.25,73738.0,8.97,0.83,0.75,0,*4D
1495706854.41,9432,15.25,73738.3,8.97,0.47,0.41,0,*41
1495706855.65,9433,15.25,73744.5,8.97,0.87,0.83,0,*42
1495706856.83,9434,15.19,73738.0,8.99,0.05,-0.27,0,*52
1495706858.05,9435,15.25,73738.5,8.97,-0.69,-0.85,0,*42
1495706859.25,9436,15.25,73740.3,8.97,-0.37,-0.57,0,*45
1495706860.47,9437,15.25,73738.3,8.93,0.33,0.33,0,*46
1495706861.68,9438,15.25,73734.0,8.95,0.87,0.79,0,*4E
1495706862.87,9439,15.25,73734.8,8.95,1.41,1.21,0,*48
1495706864.1,9440,15.25,73734.8,8.95,1.33,1.21,0,*43
1495706865.32,9441,15.25,73732.5,8.99,1.43,1.33,0,*4A
1495706866.5,9442,15.19,73736.8,8.99,0.97,0.87,0,*4F
1495706867.71,9443,15.25,73734.5,8.99,0.51,0.47,0,*48
1495706868.93,9444,15.25,73732.5,8.99,1.25,1.37,0,*4B
1495706870.15,9445,15.25,73732.8,9.01,1.75,1.59,0,*47
1495706871.37,9446,15.19,73732.5,9.01,1.25,1.05,0,*48
1495706872.62,9447,15.25,73736.8,9.01,1.47,1.29,0,*43
1495706873.84,9448,15.25,73738.8,9.03,1.37,1.25,0,*45
1495706875.08,9449,15.19,73734.8,9.05,1.63,1.51,0,*40
1495706876.32,9450,15.25,73736.3,9.05,1.55,1.55,0,*49
1495706877.55,9451,15.25,73734.8,9.09,2.17,1.97,0,*4F
1495706878.77,9452,15.25,73734.0,9.09,1.47,1.33,0,*44
1495706880.0,9453,15.25,73724.3,9.11,-0.23,-0.49,0,*43
1495706881.23,9454,15.25,73724.3,9.09,1.25,1.21,0,*45
1495706882.45,9455,15.25,73728.3,9.09,1.71,1.55,0,*46
1495706883.65,9456,15.25,73734.0,9.13,2.31,2.21,0,*49
1495706884.85,9457,15.25,73738.0,9.13,2.01,1.75,0,*49
1495706886.09,9458,15.25,73736.5,9.15,2.25,2.05,0,*42
1495706887.3,9459,15.25,73732.3,9.17,2.77,2.61,0,*44
1495706888.53,9460,15.25,73736.0,9.19,3.15,2.99,0,*42
1495706889.73,9461,15.25,73734.5,9.21,2.91,2.81,0,*4C
1495706890.93,9462,15.25,73734.8,9.25,2.95,2.77,0,*46
1495706892.15,9463,15.25,73732.8,9.27,2.61,2.51,0,*4A
1495706893.4,9464,15.25,73736.8,9.31,1.71,1.85,0,*42
1495706894.63,9465,15.25,73732.3,9.31,2.61,2.51,0,*4B
1495706895.84,9466,15.25,73738.3,9.35,2.95,2.85,0,*4E
1495706897.06,9467,15.25,73736.3,9.37,3.23,3.07,0,*4A
1495706898.28,9468,15.25,73732.8,9.39,3.07,2.95,0,*47
1495706899.48,9469,15.25,73732.3,9.43,3.03,2.91,0,*4B
1495706900.73,9470,15.25,73730.0,9.45,2.85,2.77,0,*42
1495706901.93,9471,15.25,73734.0,9.47,2.69,2.61,0,*44
1495706903.15,9472,15.25,73732.3,9.49,2.13,1.79,0,*4E
1495706904.39,9473,15.25,73734.8,9.49,1.43,1.25,0,*40
1495706905.62,9474,15.25,73732.3,9.49,1.05,0.91,0,*7B
1495706906.86,9475,15.25,73738.3,9.49,1.17,0.95,0,*7D
1495706908.08,9476,15.25,73734.0,9.53,2.01,1.79,0,*42
1495706909.3,9477,15.25,73730.0,9.53,2.27,2.17,0,*4C
1495706910.55,9478,15.25,73732.3,9.53,1.47,1.21,0,*40
1495706911.78,9479,15.25,73734.8,9.55,1.33,1.09,0,*4E
1495706912.97,9480,15.25,73732.5,9.55,1.01,0.87,0,*7E
1495706914.18,9481,15.25,73734.0,9.55,1.47,1.25,0,*44
1495706915.43,9482,15.25,73732.8,9.53,1.17,0.87,0,*7D
1495706916.69,9483,15.25,73730.3,9.53,1.17,1.09,0,*4B
1495706917.93,9484,15.25,73728.3,9.49,0.91,0.71,0,*46
1495706919.17,9485,15.25,73732.8,9.53,1.47,1.33,0,*41
1495706920.41,9486,15.25,73734.3,9.53,0.71,0.55,0,*47
1495706921.61,9487,15.19,73730.5,9.49,0.67,0.43,0,*4D
1495706922.85,9488,15.25,73732.3,9.53,0.95,0.75,0,*41
1495706924.07,9489,15.25,73732.5,9.49,1.01,0.91,0,*7D
1495706925.32,9490,15.25,73734.3,9.49,0.91,0.71,0,*43
1495706926.56,9491,15.25,73734.5,9.49,1.63,1.63,0,*4C
1495706927.79,9492,15.25,73734.3,9.49,1.13,1.05,0,*48
1495706928.99,9493,15.25,73732.3,9.47,0.59,0.41,0,*49
1495706930.2,9494,15.25,73738.0,9.47,0.51,0.29,0,*48
1495706931.43,9495,15.25,73736.8,9.45,0.47,0.29,0,*4C